Time,TemperatureF,DewpointF,PressureIn,WindDirection,WindDirectionDegrees,WindSpeedMPH,WindSpeedGustMPH,Humidity,HourlyPrecipIn,Conditions,Clouds,dailyrainin,SoftwareType,DateUTC
2013-08-24 00:11:00,61.0,49.0,29.87,SE,140,0.0,1.0,64,0.00,,,0.00,,2013-08-24 07:11:00,
2013-08-24 00:22:00,61.0,49.0,29.87,SE,140,1.0,2.0,64,0.00,,,0.00,,2013-08-24 07:22:00,
2013-08-24 00:42:00,61.0,49.0,29.87,SE,140,1.0,2.0,64,0.00,,,0.00,,2013-08-24 07:42:00,
2013-08-24 00:53:00,61.0,49.0,29.87,SE,140,1.0,1.0,64,0.00,,,0.00,,2013-08-24 07:53:00,
2013-08-24 01:12:00,60.0,48.0,29.87,SE,140,1.0,1.0,64,0.00,,,0.00,,2013-08-24 08:12:00,
2013-08-24 01:22:00,60.0,48.0,29.88,SE,140,1.0,1.0,64,0.00,,,0.00,,2013-08-24 08:22:00,
2013-08-24 01:42:00,60.0,48.0,29.88,SE,140,1.0,1.0,65,0.00,,,0.00,,2013-08-24 08:42:00,
2013-08-24 01:52:00,60.0,49.0,29.87,SE,140,1.0,1.0,66,0.00,,,0.00,,2013-08-24 08:52:00,
2013-08-24 02:11:00,60.0,49.0,29.88,SE,140,1.0,2.0,66,0.00,,,0.00,,2013-08-24 09:11:00,
2013-08-24 02:22:00,60.0,49.0,29.87,SE,140,1.0,2.0,66,0.00,,,0.00,,2013-08-24 09:22:00,
2013-08-24 02:44:00,60.0,48.0,29.88,SE,140,1.0,1.0,65,0.00,,,0.00,,2013-08-24 09:44:00,
2013-08-24 02:53:00,60.0,49.0,29.87,SE,140,1.0,2.0,66,0.00,,,0.00,,2013-08-24 09:53:00,
2013-08-24 03:13:00,60.0,49.0,29.87,SE,140,1.0,2.0,67,0.00,,,0.00,,2013-08-24 10:13:00,
2013-08-24 03:23:00,59.0,49.0,29.87,SE,140,1.0,1.0,69,0.00,,,0.00,,2013-08-24 10:23:00,
2013-08-24 03:42:00,59.0,50.0,29.87,SE,140,0.0,1.0,71,0.00,,,0.00,,2013-08-24 10:42:00,
2013-08-24 03:53:00,59.0,50.0,29.87,SE,140,0.0,1.0,72,0.00,,,0.00,,2013-08-24 10:53:00,
2013-08-24 04:11:00,58.0,49.0,29.87,SE,140,0.0,1.0,72,0.00,,,0.00,,2013-08-24 11:11:00,
2013-08-24 04:22:00,58.0,50.0,29.87,SE,140,0.0,1.0,74,0.00,,,0.00,,2013-08-24 11:22:00,
2013-08-24 04:42:00,58.0,50.0,29.86,SE,140,0.0,1.0,75,0.00,,,0.00,,2013-08-24 11:42:00,
2013-08-24 04:52:00,58.0,50.0,29.87,SE,140,1.0,1.0,75,0.00,,,0.00,,2013-08-24 11:52:00,
2013-08-24 05:11:00,57.0,50.0,29.86,SE,140,0.0,1.0,76,0.00,,,0.00,,2013-08-24 12:11:00,
2013-08-24 05:21:00,57.0,50.0,29.87,SE,140,1.0,1.0,77,0.00,,,0.00,,2013-08-24 12:21:00,
2013-08-24 05:41:00,57.0,50.0,29.86,SE,140,0.0,1.0,77,0.00,,,0.00,,2013-08-24 12:41:00,
2013-08-24 05:52:00,57.0,50.0,29.87,SE,140,0.0,2.0,78,0.00,,,0.00,,2013-08-24 12:52:00,
2013-08-24 06:11:00,57.0,50.0,29.87,SE,140,1.0,1.0,78,0.00,,,0.00,,2013-08-24 13:11:00,
2013-08-24 06:22:00,56.0,50.0,29.87,SE,140,0.0,1.0,80,0.00,,,0.00,,2013-08-24 13:22:00,
2013-08-24 06:42:00,56.0,50.0,29.88,SE,140,1.0,1.0,80,0.00,,,0.00,,2013-08-24 13:42:00,
2013-08-24 06:52:00,56.0,50.0,29.88,SE,140,1.0,1.0,81,0.00,,,0.00,,2013-08-24 13:52:00,
2013-08-24 07:11:00,56.0,50.0,29.88,SE,140,1.0,1.0,81,0.00,,,0.00,,2013-08-24 14:11:00,
2013-08-24 07:22:00,56.0,50.0,29.88,SE,140,0.0,1.0,81,0.00,,,0.00,,2013-08-24 14:22:00,
2013-08-24 07:42:00,56.0,50.0,29.89,SE,140,0.0,1.0,81,0.00,,,0.00,,2013-08-24 14:42:00,
2013-08-24 07:52:00,56.0,50.0,29.89,SE,140,0.0,1.0,81,0.00,,,0.00,,2013-08-24 14:52:00,
2013-08-24 08:11:00,57.0,51.0,29.89,SE,140,0.0,0.0,81,0.00,,,0.00,,2013-08-24 15:11:00,
2013-08-24 08:21:00,58.0,52.0,29.89,SSW,195,1.0,2.0,79,0.00,,,0.00,,2013-08-24 15:21:00,
2013-08-24 08:45:00,59.0,51.0,29.90,SW,223,0.0,2.0,76,0.00,,,0.00,,2013-08-24 15:45:00,
2013-08-24 08:54:00,61.0,52.0,29.90,West,263,1.0,2.0,72,0.00,,,0.00,,2013-08-24 15:54:00,
2013-08-24 09:13:00,62.0,52.0,29.90,SW,234,1.0,2.0,70,0.00,,,0.00,,2013-08-24 16:13:00,
2013-08-24 09:23:00,63.0,51.0,29.90,WSW,237,1.0,3.0,65,0.00,,,0.00,,2013-08-24 16:23:00,
2013-08-24 09:42:00,65.0,50.0,29.90,WSW,241,2.0,4.0,59,0.00,,,0.00,,2013-08-24 16:42:00,
2013-08-24 09:53:00,65.0,50.0,29.90,WSW,241,2.0,4.0,59,0.00,,,0.00,,2013-08-24 16:53:00,
2013-08-24 10:12:00,66.0,51.0,29.91,WSW,243,2.0,3.0,59,0.00,,,0.00,,2013-08-24 17:12:00,
2013-08-24 10:23:00,67.0,51.0,29.91,WNW,292,2.0,4.0,57,0.00,,,0.00,,2013-08-24 17:23:00,
2013-08-24 10:42:00,69.0,53.0,29.92,SW,236,1.0,6.0,57,0.00,,,0.00,,2013-08-24 17:42:00,
2013-08-24 10:52:00,70.0,53.0,29.92,SW,229,2.0,4.0,54,0.00,,,0.00,,2013-08-24 17:52:00,
2013-08-24 11:13:00,71.0,53.0,29.92,West,280,2.0,5.0,53,0.00,,,0.00,,2013-08-24 18:13:00,
2013-08-24 11:22:00,72.0,52.0,29.93,WSW,239,2.0,6.0,50,0.00,,,0.00,,2013-08-24 18:22:00,
2013-08-24 11:42:00,73.0,54.0,29.93,WSW,240,2.0,4.0,51,0.00,,,0.00,,2013-08-24 18:42:00,
2013-08-24 11:53:00,74.0,54.0,29.93,West,274,2.0,5.0,49,0.00,,,0.00,,2013-08-24 18:53:00,
2013-08-24 12:12:00,75.0,53.0,29.92,SW,216,2.0,9.0,47,0.00,,,0.00,,2013-08-24 19:12:00,
2013-08-24 12:21:00,76.0,53.0,29.92,WNW,286,2.0,6.0,45,0.00,,,0.00,,2013-08-24 19:21:00,
2013-08-24 12:42:00,77.0,53.0,29.92,West,264,1.0,3.0,44,0.00,,,0.00,,2013-08-24 19:42:00,
2013-08-24 12:52:00,78.0,54.0,29.91,WSW,246,2.0,8.0,43,0.00,,,0.00,,2013-08-24 19:52:00,
2013-08-24 13:11:00,79.0,54.0,29.92,WNW,287,2.0,5.0,42,0.00,,,0.00,,2013-08-24 20:11:00,
2013-08-24 13:22:00,80.0,55.0,29.91,WNW,294,2.0,5.0,42,0.00,,,0.00,,2013-08-24 20:22:00,
2013-08-24 13:42:00,81.0,56.0,29.91,NNW,336,2.0,5.0,42,0.00,,,0.00,,2013-08-24 20:42:00,
2013-08-24 13:52:00,81.0,56.0,29.91,WSW,239,2.0,8.0,43,0.00,,,0.00,,2013-08-24 20:52:00,
2013-08-24 14:11:00,80.0,56.0,29.91,WSW,242,3.0,10.0,44,0.00,,,0.00,,2013-08-24 21:11:00,
2013-08-24 14:22:00,80.0,56.0,29.90,WSW,244,3.0,10.0,44,0.00,,,0.00,,2013-08-24 21:22:00,
2013-08-24 14:43:00,81.0,57.0,29.91,SW,229,3.0,7.0,44,0.00,,,0.00,,2013-08-24 21:43:00,
2013-08-24 14:54:00,80.0,57.0,29.90,West,281,2.0,10.0,45,0.00,,,0.00,,2013-08-24 21:54:00,
2013-08-24 15:13:00,81.0,58.0,29.90,West,277,3.0,8.0,45,0.00,,,0.00,,2013-08-24 22:13:00,
2013-08-24 15:23:00,80.0,58.0,29.90,NW,323,3.0,7.0,47,0.00,,,0.00,,2013-08-24 22:23:00,
2013-08-24 15:42:00,79.0,57.0,29.90,WSW,239,3.0,10.0,47,0.00,,,0.00,,2013-08-24 22:42:00,
2013-08-24 15:53:00,80.0,57.0,29.90,WSW,239,3.0,10.0,46,0.00,,,0.00,,2013-08-24 22:53:00,
2013-08-24 16:12:00,79.0,56.0,29.89,West,268,4.0,9.0,46,0.00,,,0.00,,2013-08-24 23:12:00,
2013-08-24 16:22:00,79.0,57.0,29.89,West,259,3.0,8.0,47,0.00,,,0.00,,2013-08-24 23:22:00,
2013-08-24 16:42:00,79.0,57.0,29.89,WSW,245,3.0,8.0,47,0.00,,,0.00,,2013-08-24 23:42:00,
2013-08-24 16:53:00,80.0,57.0,29.89,West,261,4.0,9.0,46,0.00,,,0.00,,2013-08-24 23:53:00,
2013-08-24 17:11:00,78.0,56.0,29.89,WNW,302,3.0,7.0,47,0.00,,,0.00,,2013-08-25 00:11:00,
2013-08-24 17:21:00,77.0,56.0,29.89,NNW,329,4.0,9.0,49,0.00,,,0.00,,2013-08-25 00:21:00,
2013-08-24 17:41:00,76.0,57.0,29.90,NW,309,3.0,10.0,51,0.00,,,0.00,,2013-08-25 00:41:00,
2013-08-24 17:52:00,75.0,57.0,29.90,WNW,289,3.0,7.0,54,0.00,,,0.00,,2013-08-25 00:52:00,
2013-08-24 18:11:00,75.0,57.0,29.90,West,264,3.0,8.0,54,0.00,,,0.00,,2013-08-25 01:11:00,
2013-08-24 18:22:00,74.0,57.0,29.90,WNW,288,2.0,5.0,55,0.00,,,0.00,,2013-08-25 01:22:00,
2013-08-24 18:42:00,73.0,57.0,29.89,NW,304,2.0,4.0,58,0.00,,,0.00,,2013-08-25 01:42:00,
2013-08-24 18:52:00,71.0,56.0,29.90,WNW,284,2.0,9.0,60,0.00,,,0.00,,2013-08-25 01:52:00,
2013-08-24 19:11:00,71.0,57.0,29.90,WSW,240,2.0,5.0,62,0.00,,,0.00,,2013-08-25 02:11:00,
2013-08-24 19:22:00,71.0,57.0,29.90,WSW,240,2.0,5.0,62,0.00,,,0.00,,2013-08-25 02:22:00,
2013-08-24 19:42:00,70.0,57.0,29.90,West,279,2.0,4.0,63,0.00,,,0.00,,2013-08-25 02:42:00,
2013-08-24 19:52:00,68.0,56.0,29.90,WSW,245,2.0,4.0,66,0.00,,,0.00,,2013-08-25 02:52:00,
2013-08-24 20:11:00,67.0,56.0,29.91,West,273,2.0,4.0,68,0.00,,,0.00,,2013-08-25 03:11:00,
2013-08-24 20:23:00,65.0,55.0,29.91,WNW,294,2.0,4.0,71,0.00,,,0.00,,2013-08-25 03:23:00,
2013-08-24 20:44:00,64.0,56.0,29.91,SW,226,1.0,3.0,74,0.00,,,0.00,,2013-08-25 03:44:00,
2013-08-24 20:54:00,64.0,56.0,29.91,WNW,284,2.0,3.0,75,0.00,,,0.00,,2013-08-25 03:54:00,
2013-08-24 21:02:00,-999.0,-99.9,29.91,WNW,298,2.0,3.0,-999,-99.99,,,-99.99,,2013-08-25 04:02:00,
2013-08-24 21:14:00,64.0,56.0,29.91,WNW,298,2.0,3.0,75,0.00,,,0.00,,2013-08-25 04:14:00,
2013-08-24 21:25:00,63.0,56.0,29.91,WNW,299,1.0,2.0,77,0.00,,,0.00,,2013-08-25 04:25:00,
2013-08-24 21:43:00,63.0,56.0,29.92,WNW,299,1.0,2.0,78,0.00,,,0.00,,2013-08-25 04:43:00,
2013-08-24 21:54:00,62.0,55.0,29.93,WNW,299,1.0,2.0,79,0.00,,,0.00,,2013-08-25 04:54:00,
2013-08-24 22:12:00,62.0,56.0,29.93,WNW,299,1.0,2.0,80,0.00,,,0.00,,2013-08-25 05:12:00,
2013-08-24 22:22:00,62.0,56.0,29.93,WNW,296,1.0,3.0,81,0.00,,,0.00,,2013-08-25 05:22:00,
2013-08-24 22:42:00,61.0,55.0,29.93,WNW,296,1.0,2.0,82,0.00,,,0.00,,2013-08-25 05:42:00,
2013-08-24 22:52:00,61.0,56.0,29.93,WNW,296,1.0,2.0,83,0.00,,,0.00,,2013-08-25 05:52:00,
2013-08-24 23:12:00,61.0,56.0,29.93,WNW,286,1.0,2.0,84,0.00,,,0.00,,2013-08-25 06:12:00,
2013-08-24 23:21:00,61.0,56.0,29.93,WNW,286,0.0,2.0,85,0.00,,,0.00,,2013-08-25 06:21:00,
2013-08-24 23:43:00,60.0,55.0,29.93,WNW,286,1.0,2.0,85,0.00,,,0.00,,2013-08-25 06:43:00,
2013-08-24 23:52:00,60.0,56.0,29.93,WNW,286,0.0,2.0,86,0.00,,,0.00,,2013-08-25 06:52:00,